TimePDT,TemperatureF,Dew PointF,Humidity,Sea Level PressureIn,VisibilityMPH,Wind Direction,Wind SpeedMPH,Gust SpeedMPH,PrecipitationIn,Events,Conditions,WindDirDegrees,DateUTC
12:55 AM,81.0,57.0,44,29.90,10.0,NW,11.5,-,N/A,,Clear,310,2013-07-02 07:55:00
1:55 AM,78.1,57.0,48,29.90,10.0,WNW,4.6,-,N/A,,Clear,290,2013-07-02 08:55:00
2:55 AM,79.0,55.0,44,29.90,10.0,WNW,10.4,-,N/A,,Clear,300,2013-07-02 09:55:00
3:55 AM,75.0,57.0,53,29.91,10.0,West,8.1,-,N/A,,Clear,280,2013-07-02 10:55:00
4:55 AM,75.9,55.0,48,29.92,10.0,West,4.6,-,N/A,,Clear,260,2013-07-02 11:55:00
5:55 AM,75.0,55.0,50,29.93,10.0,WNW,6.9,-,N/A,,Clear,290,2013-07-02 12:55:00
7:55 AM,81.0,57.0,44,29.95,10.0,NW,6.9,-,N/A,,Clear,320,2013-07-02 14:55:00
8:55 AM,84.0,57.0,40,29.94,10.0,NW,12.7,-,N/A,,Clear,310,2013-07-02 15:55:00
9:55 AM,88.0,57.9,36,29.94,10.0,NW,9.2,33.4,N/A,,Clear,310,2013-07-02 16:55:00
10:55 AM,89.1,59.0,36,29.93,10.0,Variable,4.6,-,N/A,,Clear,0,2013-07-02 17:55:00
11:55 AM,93.0,54.0,27,29.91,10.0,West,6.9,-,N/A,,Clear,280,2013-07-02 18:55:00
12:55 PM,96.1,54.0,24,29.89,10.0,Variable,4.6,-,N/A,,Clear,0,2013-07-02 19:55:00
1:55 PM,99.0,53.1,21,29.87,10.0,Calm,Calm,-,N/A,,Clear,0,2013-07-02 20:55:00
2:55 PM,100.9,51.1,19,29.85,10.0,Variable,4.6,-,N/A,,Clear,0,2013-07-02 21:55:00
3:55 PM,102.0,50.0,17,29.82,10.0,Calm,Calm,-,N/A,,Clear,0,2013-07-02 22:55:00
4:55 PM,102.9,48.9,16,29.81,10.0,NW,11.5,17.3,N/A,,Clear,320,2013-07-02 23:55:00
5:55 PM,100.9,48.0,17,29.81,10.0,North,-9999.0,-,N/A,,Clear,0,2013-07-03 00:55:00
6:55 PM,97.0,46.9,18,29.81,10.0,NW,19.6,-,N/A,,Clear,310,2013-07-03 01:55:00
7:55 PM,93.0,50.0,23,29.84,10.0,NW,16.1,-,N/A,,Clear,310,2013-07-03 02:55:00
8:55 PM,87.1,48.0,26,29.86,10.0,NW,15.0,-,N/A,,Clear,320,2013-07-03 03:55:00
9:55 PM,84.0,46.0,26,29.87,10.0,WNW,17.3,25.3,N/A,,Clear,290,2013-07-03 04:55:00
10:55 PM,82.0,45.0,27,29.88,10.0,WNW,15.0,-,N/A,,Clear,300,2013-07-03 05:55:00
11:55 PM,80.1,45.0,29,29.89,10.0,WNW,15.0,-,N/A,,Clear,300,2013-07-03 06:55:00